Location: Poughquag
(41.6090°N, 73.6820°W)
Time: 08:04:06
(UTC-05:00)

Altair - Pass Details

Date: 02 December 2023
Orbit: 1501 x 1682 km, 47.2° (Epoch: 02 March)

Event Time Altitude Azimuth Distance (km) Brightness Sun altitude
Rises 11:19:19 0° 271° (W) 4,765 10.0 26.1°
Reaches altitude 10° 11:22:30 10° 275° (W) 3,757 9.5 26.2°
Maximum altitude 11:31:53 63° 356° (N) 1,683 7.8 26.3°
Drops below altitude 10° 11:41:00 10° 77° (ENE) 3,659 9.4 26.4°
Sets 11:44:05 0° 81° (E) 4,635 9.9 26.4°
